User: anonymous
Location: Unspecified
(0.0000°N, 0.0000°E)
Time: 10:11:11
(UTC+02:00)
Language:

Sapphire - Orbit

View from above orbital plane
View from above orbital plane
View from above satellite
View from above satellite

Ground track
Ground track

The orbit data is extracted from the following two-line orbital elements,

1 26932U 01043D   14273.41855326  .00000137  00000-0  85169-4 0  7263
2 26932 067.0553 128.1523 0007438 291.2671 068.7636 14.30034085678692
Epoch (UTC): 30 September 2014 10:02:43
Eccentricity: 0.0007438
inclination: 67.0553°
perigee height: 786 km
apogee height: 797 km
right ascension of ascending node: 128.1523°
argument of perigee: 291.2671°
revolutions per day: 14.30034085
mean anomaly at epoch: 68.7636°
orbit number at epoch: 67869

The dashed part of the orbit path shows where the satellite is in the earth's shadow,  

DLR